This demonstration page uses our WeatherBlox Daily Observations layout. Learn more.

Left ArrowRight Arrow

Hourly Observations for August 4, 2016

Temp ( °F °C ) Dew Point ( °F °C ) Humidity (%) Winds ( mph kmh ) Pressure ( in mb ) Visibility ( mi km ) Precip ( " mm )
12:51 am 00:51 Clear 72 22.2 70 21.1 94 94 SE 5 7 29.86 1011 10 16 0.00 0.00
1:51 am 01:51 Clear 72 22.2 68 20 87 87 N 3 6 29.85 1011 10 16 0.00 0.00
2:51 am 02:51 Clear 71 21.7 69 20.6 94 94 ESE 3 6 29.83 1010 10 16 0.00 0.00
3:51 am 03:51 Clear 71 21.7 69 20.6 94 94 Calm 29.83 1010 10 16 0.00 0.00
4:51 am 04:51 Clear 72 22.2 69 20.6 91 91 SE 5 7 29.84 1011 10 16 0.00 0.00
5:51 am 05:51 Sunny 72 22.2 68 20 87 87 Calm 29.88 1012 10 16 0.00 0.00
6:51 am 06:51 Partly Cloudy 74 23.3 69 20.6 85 85 Calm 29.89 1012 10 16 0.00 0.00
7:51 am 07:51 Mostly Sunny 77 25 68 20 74 74 Calm 29.89 1012 10 16 0.00 0.00
8:51 am 08:51 Sunny 80 26.7 67 19.4 64 64 WNW 3 6 29.88 1012 10 16 0.00 0.00
9:51 am 09:51 Sunny 84 28.9 66 18.9 55 55 VRB 3 6 29.86 1011 10 16 0.00 0.00
10:51 am 10:51 Sunny 87 30.6 65 18.3 48 48 WNW 7 11 29.83 1010 10 16 0.00 0.00
11:51 am 11:51 Mostly Sunny 90 32.2 64 17.8 42 42 W 12 19 29.82 1010 10 16 0.00 0.00
12:24 pm 12:24 Sunny with Nearby Thunderstorms 91 32.8 63 17.2 39 39 W 15 24 29.68 1005 10 16 0.00 0.00
12:51 pm 12:51 Partly Cloudy with Nearby Thunderstorms 91 32.8 64 17.8 41 41 W 13 20 29.79 1009 10 16 0.00 0.00
1:11 pm 13:11 Partly Cloudy with Thunderstorms 92 33.3 63 17.2 38 38 WSW 12 19 29.68 1005 10 16 0.00 0.00
1:44 pm 13:44 Sunny with Nearby Thunderstorms 92 33.3 63 17.2 38 38 SW 8 13 29.68 1005 10 16 0.00 0.00
1:51 pm 13:51 Partly Cloudy with Thunderstorms 93 33.9 64 17.8 38 38 W 10 17 29.78 1008 10 16 0.00 0.00
2:10 pm 14:10 Partly Cloudy with Nearby Thunderstorms 93 33.9 62 16.7 36 36 WNW 9 15 29.68 1005 10 16 0.00 0.00
2:36 pm 14:36 Partly Cloudy 93 33.9 62 16.7 36 36 W 13 20 29.65 1004 10 16 0.00 0.00
2:51 pm 14:51 Mostly Sunny 91 32.8 62 16.7 38 38 W 14 22 29.76 1008 10 16 0.00 0.00
3:51 pm 15:51 Sunny 93 33.9 62 16.7 36 36 WNW 13 20 29.74 1007 10 16 0.00 0.00
4:51 pm 16:51 Sunny 89 31.7 62 16.7 41 41 W 9 15 29.75 1008 10 16 0.00 0.00
5:51 pm 17:51 Sunny 88 31.1 62 16.7 42 42 W 10 17 29.75 1008 10 16 0.00 0.00
6:51 pm 18:51 Sunny 88 31.1 60 15.6 39 39 NW 5 7 29.75 1008 10 16 0.00 0.00
7:51 pm 19:51 Clear 83 28.3 65 18.3 55 55 E 12 19 29.78 1008 10 16 0.00 0.00
8:00 pm 20:00 Clear 83 28.3 65 18.3 55 55 E 16 26 29.74 1007 10 16 0.00 0.00
8:51 pm 20:51 Clear 82 27.8 63 17.2 53 53 E 10 17 29.80 1009 10 16 0.00 0.00
9:51 pm 21:51 Clear 80 26.7 64 17.8 58 58 ESE 9 15 29.81 1009 10 16 0.00 0.00
10:51 pm 22:51 Clear 79 26.1 64 17.8 60 60 ESE 9 15 29.80 1009 10 16 0.00 0.00
11:51 pm 23:51 Clear 78 25.6 63 17.2 60 60 E 13 20 29.80 1009 10 16 0.00 0.00

Powered by AerisWeather